Regional Weather Roundup
Issued by NWS

Home | Current Version | Previous Version | Text Only | Print | Product List | Glossary Off
Versions: 1 2 3 4 5 6 7 8 9 10 11 12 13 14 15 16 17 18 19 20 21 22 23 24 25 26 27 28 29 30 31 32 33 34 35 36 37 38 39 40 41 42 43 44 45 46 47 48 49 50

000
ASUS45 KBOU 181807
RWRCO

WEATHER ROUNDUP FOR COLORADO
NATIONAL WEATHER SERVICE DENVER/BOULDER CO
1100 AM MST THU DEC 18 2014

NOTE: "FAIR" INDICATES FEW OR NO CLOUDS BELOW 12000 FEET WITH NO
SIGNIFICANT WEATHER AND/OR OBSTRUCTIONS TO VISIBILITY.

COZ001>005-013-030-031-181900-
...NORTHWEST COLORADO...

CITY           SKY/WX    TMP DP  RH WIND       PRES   REMARKS
CRAIG          CLOUDY    27  24  89 W3        30.16R FOG
HAYDEN         PTSUNNY   27  19  74 CALM      30.14S
MEEKER         LGT SNOW  27  24  89 CALM      30.14F FOG
MOUNT WERNER   NOT AVBL
STEAMBOAT SPGS CLOUDY    26  23  89 CALM      30.13S
WALDEN         PTSUNNY   10   5  79 CALM      30.09F VSB 3/4
$$

COZ006>008-011-181900-
...WEST CENTRAL VALLEYS...

CITY           SKY/WX    TMP DP  RH WIND       PRES   REMARKS
GRAND JUNCTION CLOUDY    35  32  88 N8        30.17R WCI  29
MONTROSE       CLOUDY    36  31  82 CALM      30.17S
EAGLE          PTSUNNY   30  28  93 CALM      30.15S
RIFLE          CLOUDY    35  32  88 W5        30.15S WCI  31
DELTA          CLOUDY    38  35  89 SE5       30.16F
NUCLA          LGT SNOW  34  32  93 E3        30.19S
$$

COZ017>023-064>068-181900-
...SOUTHWEST COLORADO...

CITY           SKY/WX    TMP DP  RH WIND       PRES   REMARKS
DURANGO        CLOUDY    32  27  81 CALM      30.14S
CORTEZ         CLOUDY    35  33  92 SW8       30.16R WCI  29
PAGOSA SPRINGS CLOUDY    32  22  66 CALM      30.12F
TELLURIDE      NOT AVBL
WOLF CREEK PAS LGT SNOW  14  14 100 MISG      30.08F VSB 3/4
$$

COZ009-010-012-014-032>034-037-058>063-181900-
...CENTRAL COLORADO...

CITY           SKY/WX    TMP DP  RH WIND       PRES   REMARKS
ASPEN          PTSUNNY   29  21  72 NW3       30.09F
BUENA VISTA    MOSUNNY   32  16  51 CALM      30.07F
COPPER MTN     LGT SNOW  19  14  79 W7        30.06S WCI  10
BERTHOUD PASS  CLOUDY    10   5  79 MISG      30.05S
COTTONWOOD PAS MOSUNNY   32  16  51 E3        30.06F
GUNNISON       CLOUDY    27  19  74 CALM      30.15S
KREMMLING      CLOUDY    21  14  73 CALM      30.14F
LEADVILLE      PTSUNNY   25  12  58 CALM      30.05S
MONARCH PASS   CLOUDY    14  12  92 MISG      30.16F
SALIDA         MOSUNNY   38  19  45 SW8       30.14F
SUNLIGHT       LGT SNOW N/A N/A N/A CALM      30.11S VSB 3/4
WILKERSON PASS MOSUNNY   21  12  68 W8        30.06F WCI  12
$$

COZ069>075-181900-
...SAN LUIS VALLEY/SANGRE DE CRISTO MOUNTAINS...

CITY           SKY/WX    TMP DP  RH WIND       PRES   REMARKS
ALAMOSA        CLOUDY    28  22  78 CALM      30.11F
LA VETA PASS   CLOUDY    21  19  93 SW7       30.06F FOG     WCI  13
SAGUACHE       PTSUNNY   28  21  74 CALM      30.12F
$$

COZ035-036-038>040-181900-
...NORTHERN COLORADO FRONT RANGE...

CITY           SKY/WX    TMP DP  RH WIND       PRES   REMARKS
DENVER INTL AP PTSUNNY   37  28  70 S3        30.04F
DMNS CITY PARK   N/A     38  25  59 NW1       30.04F
AURORA         PTSUNNY   37  28  71 W2        30.04F
FRONT RANGE AP MOSUNNY   39  30  70 SW3       30.04
ERIE MUNI ARPT   N/A     38  26  62 CALM      30.05F
BOULDER MUN AP MOSUNNY   37  25  60 CALM      30.04F
CENTENNIAL     PTSUNNY   35  25  66 W3        30.03F
BROOMFIELD     PTSUNNY   37  25  60 MISG      30.05F
FORT COLLINS   MOSUNNY   37  25  60 N3        30.07S
LONGMONT       MOSUNNY   41  26  54 CALM      30.06F
$$

COZ041-046-047-076>085-087-088-181900-
...PIKES PEAK/PALMER DIVIDE AND SOUTHERN FOOTHILLS...

CITY           SKY/WX    TMP DP  RH WIND       PRES   REMARKS
COLO. SPRINGS  MOSUNNY   38  27  64 SE10      30.05F
A. F. ACADEMY  PTSUNNY   37  30  75 S6        30.04F
ELLICOTT       NOT AVBL
FALCON         PTSUNNY   37  30  75 SE7       30.06F
FORT CARSON    SUNNY     39  31  73 VRB1      30.04F
LIMON          SUNNY     39  24  55 SE5       30.06F
MONUMENT HILL  SUNNY     36  27  69 S8        30.02F
TRINIDAD       SUNNY     41  27  57 SE8       30.06F
$$

COZ042>045-048>051-090-091-181900-
...NORTHEAST COLORADO...

CITY           SKY/WX    TMP DP  RH WIND       PRES   REMARKS
GREELEY ARPT   MOSUNNY   34  19  55 CALM      30.06F
AKRON          MOSUNNY   26  22  84 W10       30.05S WCI  16
BURLINGTON     MOSUNNY   31  26  82 W8        30.07F WCI  23
WRAY           SUNNY     21  20  96 CALM      30.09F
STERLING       MOSUNNY   27  21  80 SW7       30.07F WCI  19
HOLYOKE        NOT AVBL
FORT MORGAN    CLOUDY    27  21  77 W9        30.07S WCI  18
$$

COZ086-089-092>099-181900-
...SOUTHEAST COLORADO...

CITY           SKY/WX    TMP DP  RH WIND       PRES   REMARKS
PUEBLO         SUNNY     36  28  73 CALM      30.07S
LA JUNTA       SUNNY     38  28  67 VRB3      30.09S
LAMAR          SUNNY     35  27  72 CALM      30.09F
SPRINGFIELD      N/A     30  27  88 CALM      30.09F
$$



USA.gov is the U.S. government's official web portal to all federal, state and local government web resources and services.